Wheeling, WV

4:20 PM EDT on July 21, 2017 (GMT -0400)
Wheeling-Ohio County

Weather History for KHLG - December, 2011

Change the Weather History Date:

Thursday, December 29, 2011

  Actual Average Record
Temperature  
Mean Temperature 32 °F 30 °F  
Max Temperature 43 °F 37 °F 61 °F (2003)
Min Temperature 20 °F 23 °F 8 °F (2000)
Degree Days  
Heating Degree Days 33 35  
Month to date heating degree days 784 925  
Since 1 July heating degree days 1536 2053  
Cooling Degree Days 0    
Month to date cooling degree days 0  
Year to date cooling degree days 0  
Moisture  
Dew Point 24 °F    
Average Humidity 69    
Maximum Humidity 85    
Minimum Humidity 53    
Precipitation  
Precipitation 0.01 in 0.10 in 0.61 in (1983)
Month to date precipitation 3.23 2.33  
Sea Level Pressure  
Sea Level Pressure 29.91 in    
Wind  
Wind Speed 10 mph (South)    
Max Wind Speed 22 mph    
Max Gust Speed 28 mph    
Visibility 10 miles    
Events      
T = Trace of Precipitation, MM = Missing Value Source: NWS Daily Summary

Daily Weather History Graph

Daily Weather History Graph

Search for Another Location

Airport or City:

Trip Planner

Search our weather history database for the weather conditions in past years. The results will help you decide how hot, cold, wet, or windy it might be!

Date:

Astronomy

Dec. 29, 2011 Rise Set
Actual Time 7:44 AM EST 5:04 PM EST
Civil Twilight 7:13 AM EST 5:35 PM EST
Nautical Twilight 6:39 AM EST 6:09 PM EST
Astronomical Twilight 6:06 AM EST 6:42 PM EST
Moon 10:36 AM EST (12/29) 10:40 PM EST (12/29)
Length of Visible Light 10h 21m
Length of Day
9h 20m
Waxing Crescent, 26% of the Moon is Illuminated
Dec 29
Waxing Crescent
Jan 1
First Quarter
Jan 9
Full
Jan 16
Last Quarter
Jan 23
New

Hourly Weather History & Observations

Time (EST) Temp. Windchill Dew Point Humidity Pressure Visibility Wind Dir Wind Speed Gust Speed Precip Events Conditions
12:53 AM 21.9 °F 17.2 °F 17.1 °F 82% 30.04 in 10.0 mi SSE 3.5 mph - N/A   Clear
1:53 AM 21.9 °F 14.5 °F 17.1 °F 82% 30.03 in 10.0 mi South 5.8 mph - N/A   Clear
2:53 AM 21.9 °F 17.2 °F 18.0 °F 85% 30.03 in 10.0 mi SSE 3.5 mph - N/A   Partly Cloudy
3:53 AM 21.0 °F 13.4 °F 18.0 °F 88% 30.01 in 10.0 mi SSE 5.8 mph - N/A   Clear
4:53 AM 21.9 °F 15.7 °F 18.0 °F 85% 30.00 in 10.0 mi SSE 4.6 mph - N/A   Overcast
5:53 AM 24.1 °F 17.0 °F 19.9 °F 84% 29.99 in 10.0 mi South 5.8 mph - N/A   Overcast
6:53 AM 26.1 °F 20.5 °F 21.0 °F 81% 29.99 in 10.0 mi South 4.6 mph - N/A   Overcast
7:53 AM 28.0 °F 21.7 °F 21.9 °F 78% 29.99 in 10.0 mi South 5.8 mph - N/A   Overcast
8:53 AM 28.9 °F 20.4 °F 24.1 °F 82% 29.99 in 10.0 mi South 9.2 mph - N/A   Overcast
10:53 AM 34.0 °F 25.0 °F 27.0 °F 75% 29.96 in 10.0 mi SSW 12.7 mph - N/A   Overcast
11:53 AM 36.0 °F 28.0 °F 28.0 °F 73% 29.92 in 10.0 mi SSW 11.5 mph - N/A   Overcast
12:53 PM 37.0 °F 28.1 °F 28.0 °F 70% 29.87 in 10.0 mi SSW 15.0 mph 23.0 mph N/A   Mostly Cloudy
1:53 PM 39.0 °F 31.0 °F 28.9 °F 67% 29.84 in 10.0 mi South 13.8 mph 26.5 mph N/A   Overcast
2:53 PM 39.0 °F 31.4 °F 28.9 °F 67% 29.83 in 10.0 mi South 12.7 mph - N/A   Overcast
3:53 PM 39.9 °F 33.4 °F 28.9 °F 65% 29.82 in 10.0 mi South 10.4 mph - N/A   Overcast
4:53 PM 39.0 °F 32.3 °F 28.9 °F 67% 29.81 in 10.0 mi SSE 10.4 mph - N/A   Scattered Clouds
5:53 PM 41.0 °F 33.5 °F 28.0 °F 60% 29.78 in 10.0 mi South 13.8 mph 23.0 mph N/A   Scattered Clouds
6:53 PM 42.1 °F 35.7 °F 27.0 °F 55% 29.80 in 10.0 mi SSW 11.5 mph 19.6 mph N/A   Scattered Clouds
7:53 PM 42.1 °F 34.2 °F 28.0 °F 58% 29.81 in 10.0 mi South 16.1 mph - 0.01 in   Overcast
8:53 PM 41.0 °F 33.5 °F 27.0 °F 57% 29.81 in 10.0 mi SSW 13.8 mph 25.3 mph N/A   Clear
9:53 PM 41.0 °F 33.9 °F 26.1 °F 55% 29.83 in 10.0 mi SSW 12.7 mph - N/A   Clear
10:53 PM 41.0 °F 33.1 °F 26.1 °F 55% 29.83 in 10.0 mi SSW 15.0 mph - N/A   Clear